Regional Weather Roundup
Issued by NWS

Home | Current Version | Previous Version | Graphics & Text | Print | Product List | Glossary On
Versions: 1 2 3 4 5 6 7 8 9 10 11 12 13 14 15 16 17 18 19 20 21 22 23 24 25 26 27 28 29 30 31 32 33 34 35 36 37 38 39 40 41 42 43 44 45 46 47 48 49 50
288
ASUS43 KOAX 160302
RWRNE

WEATHER ROUNDUP FOR NEBRASKA
NATIONAL WEATHER SERVICE OMAHA NE
1000 PM CDT TUE AUG 15 2017

NOTES: SATELLITE DATA IS BEING USED TO AUGMENT CLOUD COVER ABOVE
       12000 FEET.
       "FAIR" INDICATES FEW OR NO CLOUDS BELOW 12,000 FEET WITH NO
       SIGNIFICANT WEATHER AND/OR OBSTRUCTIONS TO VISIBILITY.


NEZ001>004-019>022-054>056-160400-
NEBRASKA PANHANDLE

CITY           SKY/WX    TMP DP  RH WIND       PRES   REMARKS
SCOTTSBLUFF    CLOUDY    63  58  83 W9        29.93R
ALLIANCE       LGT RAIN  63  58  83 N6        29.92R
CHADRON        CLOUDY    62  58  86 N12G21    29.90F
GORDON         TSTM      60  56  88 N20G25    29.87F
KIMBALL        CLOUDY    60  54  79 NW17      29.98R
SIDNEY         LGT RAIN  62  55  77 N17G26    29.89R
$$

NEZ057>060-069>072-079>082-160400-
SOUTHWEST NEBRASKA

CITY           SKY/WX    TMP DP  RH WIND       PRES   REMARKS
NORTH PLATTE   PTCLDY    67  63  87 E13       29.81R
IMPERIAL       CLOUDY    77  61  57 S12       29.79R
LEXINGTON      CLOUDY    69  62  80 NE21      29.84R
MCCOOK         CLEAR     79  63  57 S9        29.77R
OGALLALA       CLOUDY    65  61  85 W25       29.84R
$$

NEZ005>010-023>029-035>040-094-160400-
NORTH CENTRAL NEBRASKA

CITY           SKY/WX    TMP DP  RH WIND       PRES   REMARKS
VALENTINE      CLOUDY    69  59  70 N21G28    29.86R
AINSWORTH      LGT RAIN  67  63  88 S13       29.84R
BROKEN BOW     TSTM      64  64 100 E8        29.84F
O`NEILL        LGT RAIN  65  64  95 W6        29.81R
ORD            TSTM      67  62  84 SE7       29.87R
THEDFORD       TSTM      64  62  94 SE8       29.91F
$$

NEZ041-046>049-061>064-073>077-083>087-160400-
SOUTH CENTRAL NEBRASKA

CITY           SKY/WX    TMP DP  RH WIND       PRES   REMARKS
GRAND ISLAND   HVY RAIN  68  66  93 NE14G26   29.86R FOG
AURORA         TSTM      67  65  93 N13       29.87R
HASTINGS       MOCLDY    71  64  78 NE14      29.84R
HEBRON         PTCLDY    78  69  73 SE8       29.82R
HOLDREGE       CLOUDY    71  67  88 N10       29.81R
KEARNEY        CLOUDY    69  65  86 NE25G33   29.83R THUNDER FOG
YORK           CLOUDY    68  66  94 N16G25    29.87R
$$

NEZ011>018-030>034-042>045-160400-
NORTHEAST NEBRASKA

CITY           SKY/WX    TMP DP  RH WIND       PRES   REMARKS
NORFOLK        RAIN      66  63  90 SE13      29.82F
ALBION         TSTM      67  65  91 E13       29.84F
BLAIR          RAIN      69  67  94 NE9G17    29.89R
COLUMBUS       LGT RAIN  66  64  93 N5        29.88F
FREMONT        TSTM      68  67  98 E13       29.88F
TEKAMAH        LGT RAIN  68  66  93 S8        29.89R
WAYNE          LGT RAIN  65  63  91 S12       29.81F
$$

NEZ050>053-065>068-078-088>093-160400-
SOUTHEAST NEBRASKA

CITY           SKY/WX    TMP DP  RH WIND       PRES   REMARKS
LINCOLN        CLOUDY    72  65  78 NE16      29.87R
OMAHA EPPLEY   CLOUDY    72  65  78 NE10      29.89R
BEATRICE       CLEAR     78  69  73 E6        29.84R
FALLS CITY     CLOUDY    75  71  87 E6        29.86R
NEBRASKA CITY  PTCLDY    75  74  95 E7        29.87S
PLATTSMOUTH    CLOUDY    73  65  78 NE9       29.89R
$$

NEZ044-045-051>053-067-160400-
OMAHA AREA

CITY           SKY/WX    TMP DP  RH WIND       PRES   REMARKS
OMAHA EPPLEY   CLOUDY    72  65  78 NE10      29.89R
BLAIR          RAIN      69  67  94 NE9G17    29.89R
FREMONT        TSTM      68  67  98 E13       29.88F
MILLARD        CLOUDY    72  68  89 N3        29.89R
OFFUTT AFB     PTCLDY    72  66  80 NE12      29.88R
PLATTSMOUTH    CLOUDY    73  65  78 NE9       29.89R
WAHOO          LGT RAIN  68  67  97 SE13      29.89F
$$




USA.gov is the U.S. government's official web portal to all federal, state and local government web resources and services.